Flag for Germany Past Weather in Leinfelden-Echterdingen, Baden-Württemberg, Germany — Yesterday and Last 2 Weeks

Now
73 °F

Scattered clouds.


Feels Like: 77 °F
Forecast: 54 / 75 °F
Wind: 10 mph from North

Location: Stuttgart-Echterdingen

Current Time: May 26, 2016 at 4:41:50 PM

Latest Report: May 26, 2016 at 4:20 PM


Visibility: N/A

Pressure: 29.98 "Hg

Humidity: 47%

Dew Point: 52 °F

Location of Leinfelden-EchterdingenLocation

Past Weather in Leinfelden-Echterdingen — Graph

°F

Leinfelden-Echterdingen Temperature Yesterday

Maximum temperature yesterday: 64 °F (at 4:20 PM)
Minimum temperature yesterday: 50 °F (at 12:20 AM)
Average temperature yesterday: 55 °F

High & Low Weather Summary for the Past Weeks

 TemperatureHumidityPressure
High81 °F (May 22, 3:50 PM)100% (May 12, 5:50 PM)30.15 "Hg (May 12, 5:50 PM)
Low41 °F (May 15, 6:50 AM)34% (May 22, 1:50 PM)29.45 "Hg (May 12, 5:20 PM)
Average54 °F76%29.90 "Hg
* Reported May 11 3:20 PM — May 26 3:20 PM, Leinfelden-Echterdingen, Weather by CustomWeather, © 2016

Note: Actual official high and low records may vary slightly from our data, if they occured in-between our weather recording intervals... More about our weather records

Advertising

Leinfelden-Echterdingen Weather History for the Previous 24 Hours

Scroll right to see more
 ConditionsComfort  
Time TempWeatherWind HumidityBarometerVisibility
3:20 PM
Thu, May 26
73 °FPassing clouds.3 mph47%29.98 "HgN/A
2:50 PM73 °FPassing clouds.5 mph47%29.98 "HgN/A
2:20 PM72 °FPassing clouds.2 mph44%29.98 "HgN/A
1:50 PM72 °FPassing clouds.5 mph53%29.98 "HgN/A
1:20 PM70 °FPassing clouds.3 mph57%30.01 "HgN/A
12:50 PM70 °FPassing clouds.2 mph57%30.01 "HgN/A
12:20 PM68 °FScattered clouds.2 mph56%30.01 "HgN/A
11:50 AM66 °FScattered clouds.2 mph64%30.01 "HgN/A
11:20 AM64 °FScattered clouds.3 mph73%30.01 "HgN/A
10:50 AM63 °FPassing clouds.5 mph73%30.01 "HgN/A
10:20 AM63 °FSunny.2 mph77%30.01 "Hg10 mi
9:50 AM61 °FSunny.2 mph77%30.01 "Hg10 mi
9:20 AM59 °FSunny.5 mph82%30.04 "Hg10 mi
8:50 AM57 °FClear.2 mph88%30.04 "Hg5 mi
8:20 AM55 °FClear.3 mph88%30.01 "Hg5 mi
7:50 AM54 °FClear.2 mph94%30.01 "Hg5 mi
7:20 AM52 °FClear.1 mph94%30.01 "Hg4 mi
6:50 AM50 °FClear.2 mph94%30.01 "Hg6 mi
6:20 AM48 °FClear.1 mph94%30.01 "Hg6 mi
5:50 AM46 °FClear.2 mph100%30.01 "Hg6 mi
5:20 AM48 °FClear.2 mph94%30.01 "Hg10 mi
4:50 AM46 °FClear.2 mph93%30.01 "Hg10 mi
4:20 AM48 °FClear.3 mph94%30.01 "Hg10 mi
3:50 AM46 °FClear.3 mph93%30.01 "Hg10 mi
3:20 AM50 °FClear.1 mph94%30.01 "Hg10 mi
2:50 AM50 °FClear.2 mph94%30.01 "Hg10 mi
2:20 AM50 °FClear.5 mph94%30.01 "Hg10 mi
1:50 AM52 °FClear.3 mph88%30.01 "Hg10 mi
1:20 AM54 °FClear.2 mph88%30.01 "Hg10 mi
12:50 AM54 °FClear.2 mph88%30.01 "Hg10 mi
12:20 AM55 °FClear.2 mph88%30.01 "Hg10 mi
11:50 PM
Wed, May 25
55 °FClear.2 mph88%30.01 "Hg10 mi
11:20 PM57 °FPassing clouds.3 mph82%30.01 "HgN/A
10:50 PM57 °FPassing clouds.5 mph82%30.01 "HgN/A
10:20 PM57 °FPassing clouds.6 mph82%29.98 "HgN/A
9:50 PM57 °FPassing clouds.5 mph77%29.98 "HgN/A
9:20 PM59 °FSunny.6 mph77%29.98 "Hg10 mi
8:50 PM59 °FPartly sunny.8 mph72%29.98 "HgN/A
8:20 PM59 °FPartly sunny.8 mph72%29.95 "HgN/A
7:50 PM61 °FPartly sunny.8 mph72%29.95 "HgN/A
7:20 PM61 °FPartly sunny.10 mph68%29.95 "HgN/A
6:50 PM63 °FScattered clouds.10 mph68%29.95 "HgN/A
6:20 PM64 °FScattered clouds.10 mph64%29.92 "HgN/A
5:50 PM64 °FScattered clouds.5 mph60%29.92 "HgN/A
5:20 PM64 °FScattered clouds.3 mph60%29.92 "HgN/A
4:50 PM64 °FPassing clouds.3 mph60%29.95 "HgN/A
4:20 PM64 °FScattered clouds.2 mph64%29.95 "HgN/A
Weather by CustomWeather, © 2016

See weather overviewHow to use our weather pages